AMX5592 MMAA-MMGL

Flight info

Callsign AMX5592
Flight time 0h 49m
Altitude 34000
Route AGLON1B AGLON UT145 IGSON IGSON1B
Aircraft B38M/M-SDE1FGHILORVWXY/HB1

Departure

Time 2026-05-06 02:25
Airport General Juan N. Álvarez International Airport (MMAA)

Arrival

Time 2026-05-06 03:14
Airport Guadalajara International Airport (MMGL)
Time Latitude Longitude Altitude Speed Heading
2026-05-06 01:52 16.76125 -99.75491 23 ft 0 kts 18°
2026-05-06 02:06 16.76114 -99.75495 23 ft 2 kts 19°
2026-05-06 02:06 16.76099 -99.75501 23 ft 2 kts 21°
2026-05-06 02:06 16.76083 -99.75507 23 ft 2 kts 24°
2026-05-06 02:07 16.76069 -99.75515 23 ft 2 kts 29°
2026-05-06 02:07 16.76055 -99.75524 23 ft 2 kts 39°
2026-05-06 02:07 16.76043 -99.75537 26 ft 2 kts 62°
2026-05-06 02:07 16.76040 -99.75553 23 ft 2 kts 99°
2026-05-06 02:08 16.76041 -99.75559 23 ft 0 kts 105°
2026-05-06 02:10 16.76040 -99.75555 23 ft 3 kts 108°
2026-05-06 02:10 16.76030 -99.75527 23 ft 5 kts 108°
2026-05-06 02:11 16.76023 -99.75503 25 ft 4 kts 108°
2026-05-06 02:11 16.76015 -99.75479 23 ft 0 kts 107°
2026-05-06 02:11 16.76015 -99.75478 23 ft 0 kts 107°
2026-05-06 02:12 16.76010 -99.75460 23 ft 6 kts 107°
2026-05-06 02:12 16.75995 -99.75411 25 ft 9 kts 107°
2026-05-06 02:12 16.75960 -99.75364 27 ft 9 kts 157°
2026-05-06 02:12 16.75899 -99.75328 23 ft 11 kts 124°
2026-05-06 02:13 16.75873 -99.75260 26 ft 7 kts 108°
2026-05-06 02:13 16.75868 -99.75245 23 ft 0 kts 107°
2026-05-06 02:13 16.75863 -99.75226 23 ft 8 kts 107°
2026-05-06 02:14 16.75839 -99.75152 26 ft 12 kts 108°
2026-05-06 02:14 16.75812 -99.75057 26 ft 15 kts 106°
2026-05-06 02:14 16.75777 -99.74945 24 ft 18 kts 107°
2026-05-06 02:14 16.75736 -99.74816 23 ft 20 kts 108°
2026-05-06 02:15 16.75690 -99.74671 27 ft 22 kts 108°
2026-05-06 02:15 16.75640 -99.74515 23 ft 24 kts 108°
2026-05-06 02:15 16.75588 -99.74346 26 ft 25 kts 107°
2026-05-06 02:15 16.75530 -99.74164 25 ft 27 kts 108°
2026-05-06 02:16 16.75469 -99.73970 26 ft 29 kts 107°
2026-05-06 02:16 16.75415 -99.73793 27 ft 26 kts 108°
2026-05-06 02:16 16.75356 -99.73609 24 ft 27 kts 108°
2026-05-06 02:16 16.75308 -99.73432 25 ft 17 kts 106°
2026-05-06 02:17 16.75286 -99.73368 23 ft 0 kts 112°
2026-05-06 02:17 16.75285 -99.73367 23 ft 1 kts 112°
2026-05-06 02:17 16.75259 -99.73336 25 ft 8 kts 146°
2026-05-06 02:17 16.75199 -99.73331 24 ft 9 kts 198°
2026-05-06 02:18 16.75170 -99.73342 24 ft 0 kts 200°
2026-05-06 02:23 16.75161 -99.73345 28 ft 2 kts 200°
2026-05-06 02:23 16.75139 -99.73353 26 ft 4 kts 200°
2026-05-06 02:23 16.75102 -99.73369 24 ft 7 kts 214°
2026-05-06 02:23 16.75096 -99.73422 23 ft 8 kts 285°
2026-05-06 02:24 16.75097 -99.73426 23 ft 0 kts 285°
2026-05-06 02:24 16.75165 -99.73642 22 ft 76 kts 288°
2026-05-06 02:24 16.75415 -99.74444 26 ft 153 kts 288°
2026-05-06 02:24 16.75766 -99.75611 514 ft 180 kts 285°
2026-05-06 02:25 16.76124 -99.76988 904 ft 203 kts 286°
2026-05-06 02:25 16.76531 -99.78347 1550 ft 188 kts 287°
2026-05-06 02:25 16.76932 -99.79636 2090 ft 187 kts 287°
2026-05-06 02:25 16.77346 -99.80935 2592 ft 191 kts 287°
2026-05-06 02:26 16.77777 -99.82263 3027 ft 196 kts 287°
2026-05-06 02:26 16.78232 -99.83650 3527 ft 209 kts 287°
2026-05-06 02:26 16.78721 -99.85154 4081 ft 225 kts 287°
2026-05-06 02:26 16.79227 -99.86723 4616 ft 239 kts 287°
2026-05-06 02:27 16.79842 -99.88416 5130 ft 259 kts 300°
2026-05-06 02:27 16.81196 -99.89691 5641 ft 272 kts 336°
2026-05-06 02:27 16.83074 -99.89998 6201 ft 280 kts 359°
2026-05-06 02:27 16.85041 -99.90111 6756 ft 286 kts 353°
2026-05-06 02:28 16.87034 -99.90378 7312 ft 290 kts 350°
2026-05-06 02:28 16.89037 -99.90749 7868 ft 292 kts 348°
2026-05-06 02:28 16.91022 -99.91190 8420 ft 294 kts 346°
2026-05-06 02:28 16.93035 -99.91688 8978 ft 296 kts 345°
2026-05-06 02:29 16.95016 -99.92231 9513 ft 298 kts 339°
2026-05-06 02:29 16.96799 -99.93334 10070 ft 298 kts 321°
2026-05-06 02:29 16.98436 -99.94695 10614 ft 301 kts 321°
2026-05-06 02:29 17.00077 -99.96065 11162 ft 302 kts 322°
2026-05-06 02:30 17.01698 -99.97429 11693 ft 303 kts 322°
2026-05-06 02:30 17.03347 -99.98828 12333 ft 306 kts 322°
2026-05-06 02:30 17.05005 -100.00240 12973 ft 311 kts 322°
2026-05-06 02:30 17.06688 -100.01678 13620 ft 316 kts 322°
2026-05-06 02:31 17.08415 -100.03151 14290 ft 323 kts 322°
2026-05-06 02:31 17.10187 -100.04665 14931 ft 332 kts 322°
2026-05-06 02:31 17.11999 -100.06213 15584 ft 341 kts 322°
2026-05-06 02:31 17.13851 -100.07797 16242 ft 348 kts 322°
2026-05-06 02:32 17.15733 -100.09406 16907 ft 353 kts 322°
2026-05-06 02:32 17.17643 -100.11039 17576 ft 358 kts 322°
2026-05-06 02:32 17.19612 -100.12723 17894 ft 375 kts 322°
2026-05-06 02:32 17.21681 -100.14494 17906 ft 394 kts 322°
2026-05-06 02:33 17.23865 -100.16364 17913 ft 411 kts 322°
2026-05-06 02:33 17.25357 -100.17642 17882 ft 422 kts 322°
2026-05-06 02:33 17.30820 -100.22322 18103 ft 442 kts 322°
2026-05-06 02:34 17.33189 -100.24353 18156 ft 444 kts 322°
2026-05-06 02:34 17.35589 -100.26411 18049 ft 443 kts 322°
2026-05-06 02:34 17.37940 -100.28428 18537 ft 435 kts 322°
2026-05-06 02:34 17.40256 -100.30416 19499 ft 427 kts 322°
2026-05-06 02:35 17.42553 -100.32388 20060 ft 429 kts 322°
2026-05-06 02:35 17.44844 -100.34356 20514 ft 432 kts 322°
2026-05-06 02:35 17.47199 -100.36380 20999 ft 435 kts 322°
2026-05-06 02:35 17.49553 -100.38402 21415 ft 438 kts 322°
2026-05-06 02:36 17.51934 -100.40450 21841 ft 441 kts 321°
2026-05-06 02:36 17.54305 -100.42490 22274 ft 444 kts 321°
2026-05-06 02:36 17.56702 -100.44552 22684 ft 447 kts 321°
2026-05-06 02:36 17.59100 -100.46616 23064 ft 450 kts 321°
2026-05-06 02:37 17.61532 -100.48710 23447 ft 452 kts 321°
2026-05-06 02:37 17.63955 -100.50797 23824 ft 455 kts 321°
2026-05-06 02:37 17.66414 -100.52916 24201 ft 457 kts 321°
2026-05-06 02:37 17.68897 -100.55056 24551 ft 460 kts 321°
2026-05-06 02:38 17.71382 -100.57199 24917 ft 462 kts 321°
2026-05-06 02:38 17.73851 -100.59330 25282 ft 464 kts 321°
2026-05-06 02:38 17.76356 -100.61491 25595 ft 467 kts 321°
2026-05-06 02:38 17.78876 -100.63666 25947 ft 469 kts 321°
2026-05-06 02:39 17.81411 -100.65854 26264 ft 472 kts 321°
2026-05-06 02:39 17.83934 -100.68033 26597 ft 474 kts 321°
2026-05-06 02:39 17.86482 -100.70235 26920 ft 477 kts 321°
2026-05-06 02:39 17.89037 -100.72442 27273 ft 478 kts 320°
2026-05-06 02:40 17.91621 -100.74675 27557 ft 481 kts 320°
2026-05-06 02:40 17.94226 -100.76928 27850 ft 483 kts 320°
2026-05-06 02:40 17.96834 -100.79182 28177 ft 485 kts 320°
2026-05-06 02:40 17.99416 -100.81416 28495 ft 487 kts 320°
2026-05-06 02:41 18.02039 -100.83684 28805 ft 490 kts 320°
2026-05-06 02:41 18.04689 -100.85979 29104 ft 492 kts 320°
2026-05-06 02:41 18.07331 -100.88266 29414 ft 494 kts 320°
2026-05-06 02:41 18.10002 -100.90580 29709 ft 496 kts 320°
2026-05-06 02:42 18.12647 -100.92874 30008 ft 498 kts 320°
2026-05-06 02:42 18.15326 -100.95200 30310 ft 498 kts 320°
2026-05-06 02:42 18.18014 -100.97533 30709 ft 497 kts 319°
2026-05-06 02:42 18.20669 -100.99840 31093 ft 496 kts 319°
2026-05-06 02:43 18.23332 -101.02153 31495 ft 495 kts 319°
2026-05-06 02:43 18.25972 -101.04449 31917 ft 493 kts 319°
2026-05-06 02:43 18.28643 -101.06771 32332 ft 492 kts 319°
2026-05-06 02:43 18.31251 -101.09041 32722 ft 490 kts 319°
2026-05-06 02:44 18.33885 -101.11333 33120 ft 489 kts 319°
2026-05-06 02:44 18.36496 -101.13607 33529 ft 487 kts 319°
2026-05-06 02:44 18.39095 -101.15871 33884 ft 487 kts 319°
2026-05-06 02:44 18.41713 -101.18152 34005 ft 487 kts 318°
2026-05-06 02:45 18.44330 -101.20434 33993 ft 484 kts 318°
2026-05-06 02:45 18.49495 -101.24940 34016 ft 484 kts 319°
2026-05-06 02:46 18.54684 -101.29470 34031 ft 484 kts 318°
2026-05-06 02:46 18.59896 -101.34023 34030 ft 483 kts 318°
2026-05-06 02:47 18.65033 -101.38514 34048 ft 481 kts 318°
2026-05-06 02:47 18.70186 -101.43024 34060 ft 481 kts 318°
2026-05-06 02:48 18.75344 -101.47541 34075 ft 481 kts 318°
2026-05-06 02:48 18.80492 -101.52052 34105 ft 481 kts 318°
2026-05-06 02:49 18.85637 -101.56567 34127 ft 480 kts 318°
2026-05-06 02:49 18.90758 -101.61062 34137 ft 480 kts 318°
2026-05-06 02:50 18.95915 -101.65593 34136 ft 479 kts 318°
2026-05-06 02:50 19.01030 -101.70091 34146 ft 479 kts 318°
2026-05-06 02:51 19.06130 -101.74580 34147 ft 479 kts 318°
2026-05-06 02:51 19.11272 -101.79109 34145 ft 478 kts 318°
2026-05-06 02:52 19.16382 -101.83614 34156 ft 478 kts 318°
2026-05-06 02:52 19.20638 -101.87369 34147 ft 478 kts 318°
2026-05-06 02:53 19.25739 -101.91873 34155 ft 477 kts 318°
2026-05-06 02:53 19.31683 -101.97126 34156 ft 477 kts 318°
2026-05-06 02:54 19.35946 -102.00896 34155 ft 477 kts 318°
2026-05-06 02:54 19.41313 -102.04924 34156 ft 479 kts 334°
2026-05-06 02:55 19.47349 -102.07958 34154 ft 480 kts 333°
2026-05-06 02:55 19.53395 -102.10981 34156 ft 480 kts 333°
2026-05-06 02:55 19.56414 -102.12485 34020 ft 477 kts 333°
2026-05-06 02:56 19.59398 -102.13971 33340 ft 474 kts 333°
2026-05-06 02:56 19.62394 -102.15464 32608 ft 473 kts 333°
2026-05-06 02:56 19.65368 -102.16947 31770 ft 474 kts 333°
2026-05-06 02:56 19.68373 -102.18446 30842 ft 477 kts 333°
2026-05-06 02:57 19.71392 -102.19952 29893 ft 480 kts 333°
2026-05-06 02:57 19.74421 -102.21463 28909 ft 483 kts 333°
2026-05-06 02:57 19.77469 -102.22985 27847 ft 488 kts 333°
2026-05-06 02:57 19.80549 -102.24524 26771 ft 493 kts 334°
2026-05-06 02:58 19.83664 -102.26081 25981 ft 489 kts 334°
2026-05-06 02:58 19.86565 -102.27902 24996 ft 490 kts 321°
2026-05-06 02:58 19.89032 -102.30403 24252 ft 482 kts 309°
2026-05-06 02:58 19.90885 -102.33363 24135 ft 484 kts 294°
2026-05-06 02:59 19.92209 -102.36550 24147 ft 466 kts 290°
2026-05-06 02:59 19.93394 -102.39719 24152 ft 446 kts 288°
2026-05-06 02:59 19.94453 -102.42722 24153 ft 429 kts 287°
2026-05-06 02:59 19.95456 -102.45642 23929 ft 419 kts 287°
2026-05-06 03:00 19.96440 -102.48561 23405 ft 418 kts 287°
2026-05-06 03:00 19.97420 -102.51495 22811 ft 419 kts 287°
2026-05-06 03:00 19.98395 -102.54425 22194 ft 420 kts 287°
2026-05-06 03:00 19.99365 -102.57342 21468 ft 424 kts 288°
2026-05-06 03:01 20.00674 -102.60165 20696 ft 430 kts 304°
2026-05-06 03:01 20.02790 -102.62438 19979 ft 434 kts 324°
2026-05-06 03:01 20.05464 -102.63934 19335 ft 433 kts 335°
2026-05-06 03:01 20.08150 -102.65342 18683 ft 432 kts 333°
2026-05-06 03:02 20.10815 -102.66770 18020 ft 424 kts 333°
2026-05-06 03:02 20.13448 -102.68146 17147 ft 416 kts 338°
2026-05-06 03:02 20.16234 -102.68852 16289 ft 408 kts 357°
2026-05-06 03:02 20.19016 -102.68542 15581 ft 397 kts 18°
2026-05-06 03:03 20.21494 -102.67374 14916 ft 385 kts 26°
2026-05-06 03:03 20.23945 -102.66300 14213 ft 376 kts 14°
2026-05-06 03:03 20.26514 -102.66160 13523 ft 367 kts 349°
2026-05-06 03:03 20.28847 -102.67106 12848 ft 357 kts 327°
2026-05-06 03:04 20.30736 -102.68749 12197 ft 348 kts 311°
2026-05-06 03:04 20.32104 -102.70860 11523 ft 340 kts 294°
2026-05-06 03:04 20.32769 -102.73235 10908 ft 333 kts 282°
2026-05-06 03:04 20.33287 -102.75571 10804 ft 310 kts 283°
2026-05-06 03:05 20.33774 -102.77709 10754 ft 290 kts 283°
2026-05-06 03:05 20.34257 -102.79762 10634 ft 281 kts 284°
2026-05-06 03:05 20.34736 -102.81748 10504 ft 271 kts 284°
2026-05-06 03:05 20.35206 -102.83666 10375 ft 268 kts 285°
2026-05-06 03:06 20.35702 -102.85632 10232 ft 279 kts 285°
2026-05-06 03:06 20.36217 -102.87638 10091 ft 284 kts 285°
2026-05-06 03:06 20.36744 -102.89693 9883 ft 284 kts 285°
2026-05-06 03:06 20.37249 -102.91678 9749 ft 276 kts 285°
2026-05-06 03:07 20.37742 -102.93617 9615 ft 267 kts 285°
2026-05-06 03:07 20.38221 -102.95496 9476 ft 260 kts 285°
2026-05-06 03:07 20.38695 -102.97347 9334 ft 252 kts 285°
2026-05-06 03:07 20.39144 -102.99101 9188 ft 244 kts 285°
2026-05-06 03:08 20.39585 -103.00818 9119 ft 232 kts 285°
2026-05-06 03:08 20.40077 -103.02374 9085 ft 220 kts 293°
2026-05-06 03:08 20.40710 -103.03873 8929 ft 221 kts 293°
2026-05-06 03:08 20.41328 -103.05354 8782 ft 220 kts 293°
2026-05-06 03:09 20.41965 -103.06847 8702 ft 215 kts 294°
2026-05-06 03:09 20.42580 -103.08264 8675 ft 211 kts 294°
2026-05-06 03:09 20.43194 -103.09683 8584 ft 208 kts 294°
2026-05-06 03:09 20.43774 -103.11055 8403 ft 203 kts 293°
2026-05-06 03:10 20.44344 -103.12412 8161 ft 199 kts 294°
2026-05-06 03:10 20.44892 -103.13720 7923 ft 186 kts 293°
2026-05-06 03:10 20.45411 -103.14958 7689 ft 182 kts 293°
2026-05-06 03:10 20.45930 -103.16198 7484 ft 181 kts 293°
2026-05-06 03:11 20.46440 -103.17417 7254 ft 179 kts 292°
2026-05-06 03:11 20.46945 -103.18619 7043 ft 180 kts 294°
2026-05-06 03:11 20.47454 -103.19839 6859 ft 175 kts 292°
2026-05-06 03:11 20.47911 -103.21012 6503 ft 170 kts 294°
2026-05-06 03:12 20.48431 -103.22149 6295 ft 169 kts 293°
2026-05-06 03:12 20.48897 -103.23312 6186 ft 173 kts 294°
2026-05-06 03:12 20.49395 -103.24490 5991 ft 176 kts 293°
2026-05-06 03:12 20.49900 -103.25689 5768 ft 177 kts 295°
2026-05-06 03:13 20.50393 -103.26885 5527 ft 173 kts 292°
2026-05-06 03:13 20.50886 -103.28037 5318 ft 172 kts 294°
2026-05-06 03:13 20.51374 -103.29199 5113 ft 171 kts 294°
2026-05-06 03:13 20.51844 -103.30306 5028 ft 148 kts 294°
2026-05-06 03:14 20.52180 -103.31113 5033 ft 84 kts 294°
2026-05-06 03:14 20.52311 -103.31400 5030 ft 32 kts 311°
2026-05-06 03:14 20.52428 -103.31529 5032 ft 17 kts 324°
2026-05-06 03:14 20.52512 -103.31584 5032 ft 11 kts 335°
2026-05-06 03:15 20.52592 -103.31578 5032 ft 12 kts 24°
2026-05-06 03:15 20.52676 -103.31535 5027 ft 14 kts 23°
2026-05-06 03:15 20.52753 -103.31494 5025 ft 11 kts 50°
2026-05-06 03:15 20.52751 -103.31415 5028 ft 12 kts 111°
2026-05-06 03:16 20.52713 -103.31331 5031 ft 13 kts 116°
2026-05-06 03:16 20.52675 -103.31236 5026 ft 14 kts 112°
2026-05-06 03:16 20.52633 -103.31133 5031 ft 16 kts 114°
2026-05-06 03:16 20.52587 -103.31022 5030 ft 17 kts 114°
2026-05-06 03:17 20.52537 -103.30907 5030 ft 16 kts 115°
2026-05-06 03:17 20.52491 -103.30793 5028 ft 16 kts 100°
2026-05-06 03:17 20.52516 -103.30685 5028 ft 8 kts 68°
2026-05-06 03:17 20.52538 -103.30622 5032 ft 10 kts 74°
2026-05-06 03:18 20.52504 -103.30564 5027 ft 10 kts 144°
2026-05-06 03:18 20.52456 -103.30522 5032 ft 8 kts 128°
2026-05-06 03:18 20.52442 -103.30473 5025 ft 6 kts 73°
2026-05-06 03:18 20.52471 -103.30438 5028 ft 6 kts 43°
2026-05-06 03:19 20.52499 -103.30412 5028 ft 5 kts 41°
2026-05-06 03:19 20.52518 -103.30394 5032 ft 3 kts 41°
2026-05-06 03:19 20.52521 -103.30391 5032 ft 0 kts 41°